Frederick, MD

3:53 AM EST on January 19, 2018 (GMT -0500)
Frederick Municipal

Weather History for KFDK - June, 2013

Change the Weather History Date:

Thursday, June 27, 2013

  Actual Average (KHGR) Record (KHGR)
Temperature  
Mean Temperature 82 °F -  
Max Temperature 98 °F 81 °F 99 °F (2010)
Min Temperature 66 °F 62 °F 54 °F (2004)
Cooling Degree Days 17    
Growing Degree Days 32 (Base 50)    
Moisture  
Dew Point 69 °F    
Average Humidity 87    
Maximum Humidity 100    
Minimum Humidity 39    
Precipitation  
Precipitation 0.00 in - - ()
Sea Level Pressure  
Sea Level Pressure 29.77 in    
Wind  
Wind Speed 4 mph (SSW)    
Max Wind Speed 14 mph    
Max Gust Speed 20 mph    
Visibility 7 miles    
Events      
Averages and records for this station are not official NWS values.
T = Trace of Precipitation, MM = Missing Value Source: NWS Daily Summary

Daily Weather History Graph

Daily Weather History Graph

Search for Another Location

Airport or City:

Trip Planner

Search our weather history database for the weather conditions in past years. The results will help you decide how hot, cold, wet, or windy it might be!

Date:

Astronomy

Jun. 27, 2013 Rise Set
Actual Time 5:44 AM EDT 8:40 PM EDT
Civil Twilight 5:12 AM EDT 9:12 PM EDT
Nautical Twilight 4:31 AM EDT 9:53 PM EDT
Astronomical Twilight 3:43 AM EDT 10:41 PM EDT
Moon 11:38 PM EDT (6/27) 10:41 AM EDT (6/27)
Length of Visible Light 16h 00m
Length of Day
14h 55m
Waning Gibbous, 76% of the Moon is Illuminated
Jun 27
Waning Gibbous
Jun 30
Last Quarter
Jul 8
New
Jul 15
First Quarter
Jul 22
Full

Hourly Weather History & Observations

Time (EDT) Temp. Heat Index Dew Point Humidity Pressure Visibility Wind Dir Wind Speed Gust Speed Precip Events Conditions
12:05 AM 69.8 °F - 69.8 °F 100% 29.86 in 10.0 mi South 4.6 mph - N/A   Clear
12:25 AM 69.8 °F - 69.8 °F 100% 29.86 in 10.0 mi SE 3.5 mph - N/A   Clear
12:45 AM 69.8 °F - 69.8 °F 100% 29.86 in 10.0 mi South 3.5 mph - N/A   Clear
1:05 AM 69.8 °F - 69.8 °F 100% 29.86 in 10.0 mi South 3.5 mph - N/A   Clear
1:25 AM 69.8 °F - 69.8 °F 100% 29.85 in 10.0 mi South 4.6 mph - N/A   Clear
1:45 AM 69.8 °F - 69.8 °F 100% 29.85 in 7.0 mi SW 3.5 mph - N/A   Clear
2:05 AM 69.8 °F - 69.8 °F 100% 29.85 in 10.0 mi South 3.5 mph - N/A   Clear
2:25 AM 69.8 °F - 69.8 °F 100% 29.85 in 7.0 mi Calm Calm - N/A   Clear
2:45 AM 68.0 °F - 68.0 °F 100% 29.85 in 7.0 mi South 4.6 mph - N/A   Clear
3:05 AM 69.8 °F - 69.8 °F 100% 29.84 in 7.0 mi South 3.5 mph - N/A   Clear
3:25 AM 68.0 °F - 68.0 °F 100% 29.84 in 5.0 mi Calm Calm - N/A   Clear
3:45 AM 68.0 °F - 68.0 °F 100% 29.82 in 4.0 mi Calm Calm - N/A   Clear
4:10 AM 68.0 °F - 68.0 °F 100% 29.81 in 2.0 mi Calm Calm - N/A   Clear
4:30 AM 66.2 °F - 66.2 °F 100% 29.81 in 0.8 mi Calm Calm - N/A   Mostly Cloudy
4:50 AM 66.2 °F - 66.2 °F 100% 29.81 in 4.0 mi Calm Calm - N/A   Scattered Clouds
5:10 AM 68.0 °F - 68.0 °F 100% 29.82 in 4.0 mi Calm Calm - N/A   Clear
5:30 AM 66.2 °F - 66.2 °F 100% 29.82 in 4.0 mi South 3.5 mph - N/A   Clear
5:50 AM 68.0 °F - 68.0 °F 100% 29.83 in 4.0 mi Calm Calm - N/A   Clear
6:10 AM 68.0 °F - 68.0 °F 100% 29.83 in 3.0 mi Calm Calm - N/A   Clear
6:30 AM 68.0 °F - 68.0 °F 100% 29.83 in 4.0 mi Calm Calm - N/A   Clear
6:45 AM 68.0 °F - 68.0 °F 100% 29.83 in 2.5 mi Calm Calm - N/A   Clear
7:50 AM 71.6 °F - 71.6 °F 100% 29.83 in 4.0 mi Calm Calm - N/A   Mostly Cloudy
8:50 AM 73.4 °F - 71.6 °F 94% 29.81 in 4.0 mi Calm Calm - N/A   Mostly Cloudy
9:25 AM 75.2 °F - 71.6 °F 89% 29.80 in 5.0 mi Calm Calm - N/A   Haze
9:45 AM 77.0 °F - 71.6 °F 83% 29.79 in 7.0 mi Calm Calm - N/A   Scattered Clouds
10:45 AM 82.4 °F 88.2 °F 73.4 °F 74% 29.97 in 7.0 mi SSE 5.8 mph - N/A   Mostly Cloudy
11:50 AM 84.2 °F 90.9 °F 73.4 °F 70% 29.74 in 7.0 mi SSE 5.8 mph - N/A   Scattered Clouds
12:50 PM 86.0 °F 93.4 °F 73.4 °F 66% 29.72 in 10.0 mi SSE 9.2 mph - N/A   Mostly Cloudy
1:45 PM 84.2 °F 90.9 °F 73.4 °F 70% 29.70 in 10.0 mi South 11.5 mph 19.6 mph N/A   Mostly Cloudy
2:50 PM 82.4 °F 87.2 °F 71.6 °F 70% 29.69 in 7.0 mi SW 13.8 mph - N/A   Mostly Cloudy
3:52 PM 80.6 °F 85.4 °F 73.4 °F 79% 29.68 in 7.0 mi SW 13.8 mph - N/A   Mostly Cloudy
4:59 PM 78.8 °F - 69.8 °F 74% 29.66 in 10.0 mi West 10.4 mph - N/A   Mostly Cloudy
5:55 PM 80.6 °F 84.6 °F 71.6 °F 74% 29.64 in 10.0 mi West 5.8 mph - N/A   Mostly Cloudy
6:55 PM 98.6 °F 105.5 °F 69.8 °F 39% 29.65 in 10.0 mi West 8.1 mph - N/A   Scattered Clouds
7:55 PM 78.8 °F - 68.0 °F 69% 29.66 in 10.0 mi West 10.4 mph - N/A   Clear
8:50 PM 77.0 °F - 68.0 °F 74% 29.66 in 10.0 mi SW 8.1 mph - N/A   Mostly Cloudy
9:10 PM 77.0 °F - 68.0 °F 74% 29.67 in 10.0 mi SW 9.2 mph - N/A   Mostly Cloudy
9:30 PM 77.0 °F - 68.0 °F 74% 29.67 in 10.0 mi SW 9.2 mph 12.7 mph N/A   Overcast
9:50 PM 77.0 °F - 68.0 °F 74% 29.67 in 10.0 mi SW 10.4 mph - N/A   Mostly Cloudy
10:10 PM 77.0 °F - 68.0 °F 74% 29.67 in 10.0 mi WSW 9.2 mph - N/A   Overcast
10:30 PM 77.0 °F - 68.0 °F 74% 29.67 in 10.0 mi SW 9.2 mph - N/A   Overcast
10:50 PM 75.2 °F - 66.2 °F 73% 29.67 in 10.0 mi WSW 5.8 mph - N/A   Overcast
11:10 PM 75.2 °F - 68.0 °F 78% 29.67 in 10.0 mi SW 8.1 mph - N/A   Overcast
11:30 PM 75.2 °F - 68.0 °F 78% 29.66 in 10.0 mi SW 4.6 mph - N/A   Overcast
11:50 PM 75.2 °F - 66.2 °F 73% 29.66 in 10.0 mi SSW 5.8 mph - N/A   Overcast